Hourly Data Report for August 25, 2021

ALGONQUIN PARK EAST GATE
ONTARIO
Current Station Operator: ECCC - MSC

45°32'00.000" N
78°16'00.000" W
397.00 m
6080192
71581
TNK

Download Data

Hourly Data (August 2021)
Hourly Data Report for August 25, 2021
TIME
LST
Temp Definition
°C
Dew Point Definition
°C
Rel Hum Definition
%
Precip. Amount Definition
mm

Wind Dir Definition
10's deg

Wind Spd Definition
km/h
Visibility Definition
km
Stn Press Definition
kPa
Hmdx Definition


Wind Chill Definition


Weather Definition


00:00 16.3 15.8 96 0.0   0   97.04     LegendNANA
01:00 15.6 15.1 97 0.0   0   97.03     LegendNANA
02:00 14.9 14.4 97 0.0   0   97.05     LegendNANA
03:00 14.6 14.2 97 0.0   0   97.09     LegendNANA
04:00 14.1 13.7 98 0.0 0 1   97.05     LegendNANA
05:00 14.1 13.8 99 0.0   0   97.09     LegendNANA
06:00 14.6 14.4 99 0.0 0 1   97.13     LegendNANA
07:00 15.9 15.5 98 0.0   0   97.15     LegendNANA
08:00 17.2 16.7 97 0.0 0 1   97.15     LegendNANA
09:00 20.0 18.5 91 0.0   0   97.16 26   LegendNANA
10:00 25.6 19.8 70 0.0 25 6   97.11 33   LegendNANA
11:00 27.6 19.2 60 0.0 25 6   97.11 35   LegendNANA
12:00 28.4 18.6 55 0.0 23 6   97.12 35   LegendNANA
13:00 28.9 18.9 55 0.0 26 5   97.12 36   LegendNANA
14:00 29.0 19.0 55 0.0 22 6   97.08 36   LegendNANA
15:00 29.6 18.9 53 0.0 27 7   97.04 36   LegendNANA
16:00 29.1 19.2 55 0.0 27 6   97.03 36   LegendNANA
17:00 28.3 18.8 57 0.0 25 7   97.01 35   LegendNANA
18:00 27.1 18.7 60 0.0 24 5   97.01 34   LegendNANA
19:00 23.8 18.8 74 0.0 25 1   97.01 30   LegendNANA
20:00 21.3 19.2 87 0.0 11 2   97.05 28   LegendNANA
21:00 20.2 18.8 91 0.0   0   97.07 27   LegendNANA
22:00 18.8 17.8 94 0.0   0   97.06     LegendNANA
23:00 18.2 17.4 95 0.0   0   97.09     LegendNANA

Notes on Data Quality.

Legend

  • E = Estimated
  • M = Missing
  • NA = Not Available*
  • [empty] = Indicates an unobserved value
Date modified: